Location: *
(46.4000°N, 12.6667°E)
Time: 16:18:48
(UTC+00:00)

Cosmos 1980 Rocket - Pass Details

Date: 09 April 2020
Orbit: 828 x 850 km, 71.0° (Epoch: 28 May)

Event Time Altitude Azimuth Distance (km) Brightness Sun altitude
Rises 21:37:36 0° 331° (NNW) 3,389 6.5 -31.8°
Reaches altitude 10° 21:40:03 10° 329° (NNW) 2,454 5.5 -32.0°
Enters shadow 21:44:21 51° 304° (NW) 1,053 2.8 -32.3°
